Location: Unspecified
(51.0950°N, 12.9690°E)
Time: 06:57:42
(UTC+00:00)

PCSat - Pass Details

Date: 18 April 2024
Orbit: 783 x 792 km, 67.1° (Epoch: 27 May)

Event Time Altitude Azimuth Distance (km) Brightness Sun altitude
Rises 01:18:58 0° 319° (NW) 3,298 13.0 -21.7°
Reaches altitude 10° 01:22:00 10° 335° (NNW) 2,368 12.4 -21.4°
Maximum altitude 01:26:03 21° 24° (NNE) 1,734 12.2 -21.1°
Drops below altitude 10° 01:30:06 10° 72° (ENE) 2,365 12.8 -20.7°
Sets 01:33:07 0° 89° (E) 3,293 13.4 -20.4°
